Location: Copper Breaks State Park
(34.1132°N, 99.7492°W)
Time: 20:33:05
(UTC-06:00)

SL-16 R/B - Visible Passes

Search period start: 04 March 2015 00:00
Search period end: 14 March 2015 01:00
Orbit: 985 x 1006 km, 99.2° (Epoch: 03 March)

Date Brightness Start Highest point End Pass type
(mag) Time Alt. Az. Time Alt. Az. Time Alt. Az.
04 Mar 5.1 03:10:29 12° NNE 03:10:29 12° NNE 03:11:11 10° NNE visible
04 Mar 4.6 04:55:33 12° NNW 04:55:33 12° NNW 04:56:04 10° NNW visible
05 Mar 4.7 03:41:26 17° NNE 03:41:26 17° NNE 03:42:58 10° N visible
06 Mar 4.3 04:12:21 21° N 04:12:21 21° N 04:14:14 10° N visible
07 Mar 5.1 02:58:12 14° NE 02:58:12 14° NE 02:59:36 10° NNE visible
07 Mar 4.1 04:43:16 21° NNW 04:43:16 21° NNW 04:45:06 10° NNW visible
08 Mar 4.5 04:29:06 22° NNE 04:29:06 22° NNE 04:31:40 10° N visible
08 Mar 4.2 06:14:10 17° NW 06:14:10 17° NW 06:15:34 10° NNW visible
09 Mar 3.9 05:00:00 30° N 05:00:00 30° N 05:03:05 10° N visible
09 Mar 4.4 06:45:03 11° NW 06:45:03 11° NW 06:45:20 10° NW visible
10 Mar 5.1 03:45:49 13° NE 03:45:49 13° NE 03:47:47 10° NE visible
10 Mar 3.6 05:30:53 33° NNW 05:30:53 33° NNW 05:34:06 10° NNW visible
11 Mar 4.5 04:16:41 23° NE 04:16:41 23° NE 04:20:19 10° NNE visible
11 Mar 3.6 06:01:45 27° NW 06:01:45 27° NW 06:04:43 10° NNW visible
12 Mar 3.7 04:47:33 37° NE 04:47:33 37° NE 04:51:54 10° N visible
12 Mar 3.9 06:32:37 18° WNW 06:32:37 18° WNW 06:34:47 10° NW visible
13 Mar 5.3 03:33:21 10° ENE 03:33:59 10° ENE 03:35:05 10° NE visible
13 Mar 3.0 05:18:24 52° N 05:18:24 52° N 05:23:03 10° N visible
13 Mar 4.3 07:03:28 10° WNW 07:03:28 10° WNW 07:03:28 10° WNW visible
